Temp
-12 -12 -12 -12 -12 -12 -11 -11 -11 -12 -12 -13 -12 -13 -13 -13 -13 -13 -13 -13 -13 -13 -13 -12 -12 -12 -13 -13 -13 -13 -13 -14 -14 -13 -13 -13 -14 -14 -14 -14 -13 -14 -14
-12 -12 -12 -12 -11 -11 -11 -12 -12 -12 -12 -13 -12 -13 -13 -13 -13 -13 -13 -13 -13 -13 -13 -12 -13 -13 -13 -13 -13 -13 -14 -14 -14 -14 -14 -14 -14 -14 -14 -14 -14 -14 -14
-12 -10 -12 -12 -12 -12 -12 -12 -11 -13 -13 -13 -13 -13 -13 -13 -13 -13 -13 -13 -13 -13 -13 -13 -13 -13 -13 -13 -13 -14 -14 -14 -14 -14 -14 -15 -15 -14 -14 -14 -14 -15 -15
-12 -11 -12 -12 -13 -12 -12 -12 -12 -13 -13 -13 -13 -13 -13 -13 -13 -13 -13 -13 -13 -13 -13 -13 -13 -13 -14 -14 -14 -14 -14 -15 -15 -15 -15 -15 -15 -15 -14 -15 -15 -15 -15
-12 -12 -12 -11 -12 -12 -12 -12 -12 -13 -13 -13 -13 -13 -13 -13 -13 -13 -13 -13 -13 -13 -13 -13 -13 -13 -14 -14 -14 -15 -15 -15 -15 -15 -16 -15 -15 -15 -15 -15 -15 -15 -15
-12 -12 -11 -12 -12 -12 -13 -12 -13 -13 -13 -13 -13 -13 -13 -13 -13 -13 -13 -13 -13 -13 -13 -14 -13 -14 -14 -15 -15 -15 -15 -16 -16 -16 -16 -16 -16 -15 -15 -15 -15 -15 -15
-12 -12 -11 -13 -12 -12 -12 -13 -13 -13 -13 -13 -13 -13 -13 -13 -13 -13 -13 -13 -13 -13 -13 -14 -14 -14 -15 -15 -16 -16 -16 -16 -16 -16 -16 -16 -16 -16 -16 -15 -15 -15 -15
-12 -12 -12 -13 -13 -13 -12 -12 -13 -13 -13 -13 -13 -13 -13 -13 -13 -13 -13 -13 -13 -13 -13 -13 -14 -14 -14 -15 -16 -17 -17 -17 -16 -17 -17 -17 -16 -16 -16 -16 -16 -15 -15
-12 -12 -12 -13 -12 -13 -13 -13 -13 -13 -13 -13 -13 -13 -13 -13 -13 -13 -13 -13 -13 -13 -13 -13 -14 -14 -15 -15 -16 -17 -17 -18 -17 -17 -17 -18 -17 -16 -16 -16 -16 -16 -15
-13 -13 -13 -13 -13 -13 -13 -13 -13 -13 -13 -13 -13 -13 -13 -14 -14 -13 -14 -14 -15 -14 -14 -14 -14 -14 -15 -15 -15 -17 -17 -18 -18 -18 -17 -18 -17 -16 -16 -16 -16 -15 -15
-12 -12 -13 -13 -13 -13 -14 -13 -13 -13 -13 -13 -13 -14 -14 -14 -14 -14 -15 -14 -15 -15 -14 -14 -14 -15 -15 -15 -16 -16 -17 -17 -18 -18 -18 -18 -17 -16 -16 -16 -16 -16 -16
-12 -12 -13 -13 -14 -14 -14 -13 -13 -13 -14 -13 -13 -14 -14 -14 -14 -14 -15 -15 -15 -15 -14 -14 -14 -15 -15 -15 -16 -17 -17 -17 -17 -17 -17 -17 -17 -16 -16 -16 -16 -16 -16
-13 -13 -14 -14 -14 -14 -14 -14 -14 -14 -13 -13 -14 -14 -14 -15 -15 -15 -15 -15 -15 -15 -15 -15 -15 -16 -16 -17 -17 -17 -17 -17 -17 -17 -17 -17 -16 -16 -16 -16 -16 -16 -16
-13 -13 -14 -14 -14 -14 -14 -14 -14 -14 -14 -15 -15 -15 -15 -15 -15 -15 -15 -15 -15 -15 -15 -16 -16 -16 -16 -16 -17 -17 -17 -17 -17 -16 -16 -16 -16 -16 -17 -16 -16 -16 -16
-13 -14 -14 -14 -14 -14 -14 -14 -14 -14 -14 -14 -14 -15 -15 -15 -14 -14 -15 -15 -15 -15 -16 -16 -16 -16 -16 -16 -16 -17 -16 -16 -16 -16 -16 -16 -16 -17 -16 -16 -16 -16 -16
-14 -14 -13 -13 -14 -14 -14 -14 -14 -14 -14 -14 -15 -15 -15 -15 -15 -15 -15 -15 -16 -16 -15 -16 -16 -16 -16 -16 -16 -16 -16 -16 -16 -16 -16 -16 -17 -17 -16 -16 -16 -16 -16
-14 -14 -14 -14 -15 -15 -14 -14 -14 -15 -14 -14 -15 -15 -15 -15 -15 -15 -15 -15 -15 -15 -15 -15 -16 -16 -16 -16 -16 -16 -16 -16 -16 -16 -16 -16 -16 -16 -16 -16 -17 -17 -16
-15 -15 -15 -15 -14 -15 -15 -15 -15 -14 -14 -14 -15 -14 -14 -15 -15 -15 -15 -15 -15 -15 -15 -15 -15 -16 -16 -16 -16 -16 -16 -16 -16 -16 -16 -17 -16 -17 -17 -17 -17 -17 -16
-15 -15 -15 -15 -15 -15 -15 -15 -15 -15 -15 -15 -15 -15 -15 -15 -15 -15 -15 -15 -15 -15 -15 -15 -15 -15 -16 -16 -16 -16 -16 -16 -17 -17 -17 -17 -17 -17 -17 -17 -17 -17 -17
-15 -15 -15 -15 -15 -15 -15 -15 -15 -15 -15 -16 -16 -16 -16 -15 -15 -15 -15 -15 -15 -15 -15 -15 -15 -15 -16 -16 -15 -16 -16 -17 -16 -17 -17 -16 -17 -17 -17 -17 -17 -17 -17
-16 -16 -16 -16 -16 -16 -15 -16 -16 -16 -15 -15 -15 -16 -16 -15 -15 -15 -15 -15 -16 -15 -16 -15 -15 -15 -15 -16 -16 -16 -16 -16 -16 -16 -16 -16 -17 -17 -17 -17 -17 -17 -17
-16 -16 -16 -16 -16 -16 -16 -16 -16 -15 -16 -16 -15 -15 -16 -16 -16 -16 -16 -16 -16 -16 -16 -16 -16 -15 -16 -16 -16 -16 -16 -17 -16 -17 -17 -17 -17 -17 -17 -18 -18 -18 -17
-16 -16 -16 -16 -16 -16 -16 -16 -16 -16 -16 -16 -16 -16 -16 -16 -16 -16 -17 -17 -17 -16 -16 -16 -16 -16 -16 -16 -16 -16 -16 -17 -17 -17 -17 -17 -16 -17 -16 -17 -17 -17 -17
-16 -16 -16 -15 -15 -16 -15 -16 -16 -16 -16 -16 -16 -17 -16 -17 -17 -17 -17 -17 -17 -17 -16 -16 -16 -15 -15 -16 -16 -16 -17 -17 -16 -17 -16 -16 -17 -17 -17 -17 -17 -17 -17
-17 -16 -16 -16 -16 -16 -16 -16 -16 -16 -16 -16 -16 -16 -16 -16 -17 -17 -17 -17 -17 -16 -16 -17 -17 -16 -15 -16 -16 -16 -16 -17 -16 -16 -16 -17 -17 -17 -17 -17 -17 -17 -17
-16 -16 -16 -17 -17 -16 -16 -16 -16 -16 -16 -16 -16 -16 -16 -15 -16 -16 -17 -17 -17 -17 -17 -16 -16 -17 -16 -16 -16 -16 -17 -17 -16 -17 -16 -16 -16 -16 -17 -17 -17 -17 -17
Height
5731 5736 5747 5752 5755 5758 5761 5767 5773 5777 5782 5784 5789 5794 5797 5800 5802 5805 5808 5810 5812 5813 5812 5812 5814 5814 5814 5815 5816 5816 5817 5818 5818 5818 5819 5818 5817 5818 5817 5819 5818 5818 5817
5728 5735 5743 5747 5751 5755 5757 5760 5768 5772 5777 5780 5782 5788 5793 5795 5799 5801 5803 5806 5808 5808 5808 5808 5810 5810 5811 5811 5812 5812 5812 5813 5814 5814 5814 5815 5813 5814 5813 5812 5813 5813 5812
5723 5731 5738 5744 5747 5750 5754 5757 5764 5771 5775 5776 5779 5784 5788 5790 5795 5798 5799 5801 5803 5803 5803 5804 5805 5805 5807 5807 5807 5807 5807 5808 5810 5809 5809 5810 5809 5809 5808 5807 5808 5807 5807
5719 5724 5733 5739 5741 5747 5751 5755 5760 5768 5771 5773 5777 5780 5783 5787 5789 5793 5794 5795 5797 5798 5798 5798 5800 5801 5802 5804 5803 5802 5803 5803 5803 5804 5804 5804 5804 5803 5803 5803 5803 5802 5801
5714 5721 5728 5735 5739 5744 5749 5754 5755 5763 5766 5769 5773 5775 5779 5782 5784 5786 5788 5790 5792 5793 5793 5793 5794 5795 5797 5798 5798 5797 5796 5796 5797 5798 5799 5800 5799 5799 5799 5798 5798 5797 5797
5711 5717 5724 5732 5736 5741 5745 5752 5750 5756 5762 5765 5768 5770 5771 5775 5778 5779 5781 5783 5785 5786 5786 5786 5788 5789 5790 5791 5792 5791 5791 5791 5792 5792 5792 5793 5793 5794 5794 5794 5793 5792 5792
5710 5715 5720 5727 5733 5738 5742 5744 5748 5750 5758 5763 5764 5766 5767 5768 5771 5773 5775 5776 5777 5779 5780 5781 5781 5782 5782 5783 5785 5784 5784 5785 5785 5785 5786 5787 5788 5788 5788 5788 5788 5787 5786
5710 5714 5719 5721 5727 5733 5737 5741 5745 5747 5750 5756 5759 5759 5761 5763 5765 5766 5768 5769 5771 5772 5772 5774 5775 5775 5776 5775 5776 5778 5778 5778 5778 5779 5779 5779 5781 5782 5782 5781 5781 5780 5780
5707 5711 5716 5719 5723 5727 5732 5736 5740 5744 5744 5749 5751 5754 5755 5758 5756 5757 5760 5761 5763 5765 5765 5765 5767 5768 5768 5768 5768 5770 5771 5770 5771 5771 5772 5772 5773 5773 5773 5773 5772 5773 5772
5704 5707 5711 5715 5718 5722 5726 5731 5734 5737 5739 5741 5743 5747 5748 5750 5747 5749 5751 5754 5754 5758 5758 5758 5759 5759 5759 5760 5760 5761 5761 5761 5761 5764 5765 5764 5765 5765 5765 5765 5765 5764 5764
5701 5705 5707 5710 5714 5718 5720 5723 5726 5730 5732 5734 5736 5738 5740 5743 5742 5742 5742 5743 5745 5748 5749 5749 5750 5751 5752 5752 5752 5752 5751 5751 5753 5755 5756 5757 5757 5757 5758 5757 5757 5755 5754
5698 5701 5704 5707 5710 5713 5715 5718 5719 5721 5724 5727 5728 5729 5732 5733 5735 5734 5734 5735 5737 5739 5741 5742 5743 5744 5744 5743 5743 5743 5743 5744 5746 5747 5748 5748 5748 5748 5748 5748 5747 5746 5744
5696 5697 5700 5702 5705 5708 5709 5710 5713 5715 5717 5718 5721 5722 5722 5724 5726 5725 5727 5729 5731 5733 5734 5736 5736 5736 5737 5736 5735 5736 5737 5738 5740 5740 5740 5740 5739 5739 5738 5737 5736 5735 5734
5694 5695 5696 5699 5701 5702 5704 5706 5707 5708 5711 5712 5716 5717 5717 5717 5718 5718 5720 5722 5724 5726 5727 5729 5728 5729 5729 5729 5729 5730 5731 5731 5731 5731 5731 5731 5730 5729 5728 5727 5725 5723 5721
5693 5694 5695 5696 5696 5697 5699 5700 5701 5704 5707 5708 5710 5711 5711 5712 5712 5712 5713 5714 5716 5718 5720 5721 5722 5722 5723 5722 5723 5723 5723 5723 5722 5722 5721 5720 5719 5718 5717 5715 5714 5712 5709
5693 5693 5692 5693 5695 5694 5696 5699 5701 5702 5702 5704 5704 5704 5706 5706 5706 5706 5708 5708 5709 5710 5711 5714 5714 5714 5714 5713 5714 5713 5713 5712 5712 5711 5710 5710 5709 5707 5706 5703 5701 5699 5696
5689 5690 5691 5691 5690 5692 5694 5695 5696 5696 5697 5697 5698 5698 5700 5699 5699 5699 5700 5701 5702 5701 5700 5704 5704 5705 5704 5704 5704 5703 5702 5701 5701 5700 5699 5697 5694 5694 5691 5689 5687 5686 5683
5685 5685 5685 5686 5688 5691 5692 5692 5692 5691 5692 5692 5691 5691 5693 5691 5692 5692 5692 5692 5692 5692 5690 5689 5694 5695 5694 5695 5693 5692 5691 5690 5688 5687 5687 5683 5682 5680 5678 5676 5673 5671 5669
5681 5682 5683 5683 5683 5684 5685 5686 5686 5686 5686 5685 5684 5685 5686 5685 5687 5687 5685 5685 5685 5683 5681 5679 5681 5684 5684 5684 5684 5681 5682 5680 5678 5676 5672 5670 5669 5667 5664 5662 5659 5657 5654
5678 5678 5678 5678 5678 5678 5679 5679 5679 5680 5679 5679 5678 5679 5679 5678 5679 5678 5676 5676 5675 5673 5672 5670 5669 5672 5672 5673 5670 5671 5669 5666 5665 5662 5660 5658 5654 5652 5649 5647 5644 5641 5638
5673 5672 5673 5673 5673 5673 5673 5672 5671 5671 5671 5671 5671 5671 5670 5668 5668 5668 5666 5667 5665 5663 5662 5660 5658 5658 5658 5658 5657 5655 5653 5653 5651 5648 5646 5643 5639 5636 5634 5631 5629 5626 5623
5666 5666 5667 5667 5667 5667 5665 5663 5661 5660 5660 5660 5661 5661 5661 5660 5660 5658 5656 5655 5653 5650 5649 5648 5647 5645 5645 5645 5643 5640 5638 5635 5634 5632 5629 5627 5624 5623 5619 5616 5614 5610 5606
5657 5658 5658 5657 5658 5657 5655 5653 5652 5651 5651 5650 5650 5650 5649 5647 5647 5646 5644 5642 5640 5638 5635 5634 5633 5632 5631 5628 5626 5624 5622 5619 5618 5613 5611 5610 5607 5606 5603 5599 5596 5592 5587
5648 5648 5648 5647 5646 5645 5644 5645 5645 5641 5640 5640 5639 5638 5634 5633 5633 5633 5631 5629 5628 5624 5622 5620 5616 5615 5612 5611 5610 5609 5607 5603 5600 5597 5595 5591 5590 5587 5585 5581 5576 5572 5566
5637 5635 5634 5634 5633 5632 5632 5633 5632 5630 5628 5626 5625 5621 5621 5621 5619 5617 5615 5614 5611 5608 5607 5605 5600 5597 5594 5593 5593 5590 5587 5585 5581 5579 5576 5571 5568 5565 5561 5557 5553 5550 5546
5625 5624 5622 5621 5620 5617 5617 5618 5616 5614 5612 5610 5608 5605 5605 5604 5603 5603 5601 5599 5594 5591 5589 5587 5583 5579 5576 5575 5572 5569 5565 5565 5562 5555 5554 5551 5547 5543 5538 5533 5531 5527 5523
Wind_Speed
29 41 37 29 26 24 30 28 24 40 38 35 28 26 23 21 18 18 18 18 17 17 16 13 15 18 20 20 19 20 21 22 23 22 21 23 20 16 13 15 16 18 18
39 38 39 32 26 24 18 22 25 35 36 31 30 28 27 25 21 21 20 19 19 20 18 17 18 19 21 21 22 22 23 24 24 23 21 22 18 16 15 14 18 18 17
54 40 46 39 27 28 27 23 27 34 34 33 33 29 33 26 24 23 22 21 22 20 19 18 18 19 22 23 25 25 25 25 26 24 23 19 19 19 17 18 21 17 18
51 37 44 33 27 28 26 27 29 33 35 37 35 31 31 26 27 25 24 23 24 24 22 21 21 22 24 27 27 26 27 27 28 26 23 23 24 23 22 22 20 17 15
50 41 36 27 30 24 27 28 29 28 33 37 36 34 35 34 31 28 28 27 26 25 25 24 24 25 26 29 31 30 31 31 30 28 25 28 29 27 26 23 21 19 17
46 49 35 32 28 26 23 28 22 26 26 33 32 36 35 34 35 35 33 31 29 30 29 29 29 30 29 32 33 33 34 33 33 31 28 29 29 30 27 26 23 20 20
46 43 41 33 28 24 24 26 26 26 25 24 27 31 36 35 31 35 36 36 34 32 31 32 32 33 33 32 35 37 35 37 37 36 34 33 32 33 30 28 27 26 26
39 38 32 28 21 25 28 26 26 29 32 28 27 31 37 41 38 40 40 41 39 37 33 34 33 35 33 33 37 37 38 38 39 39 39 39 34 33 33 32 31 31 30
22 35 34 27 26 26 29 34 32 29 32 32 30 27 33 33 37 38 40 43 41 40 38 34 36 36 37 36 37 38 39 42 41 40 40 35 36 37 37 36 37 37 36
22 19 22 29 28 35 34 36 38 35 37 33 31 27 30 28 33 30 27 28 34 37 38 35 36 38 40 39 40 41 42 46 44 40 40 36 39 40 39 39 40 41 41
22 29 30 32 35 33 38 38 42 39 39 35 31 31 30 32 33 26 28 28 29 30 35 36 38 39 40 40 40 42 44 44 38 41 39 37 39 42 42 43 43 42 41
21 23 35 33 30 28 33 36 36 34 33 31 32 34 34 34 35 33 28 29 29 33 35 36 36 36 36 37 37 39 41 39 38 37 37 38 40 42 43 44 43 44 45
15 19 30 39 42 38 34 32 33 35 34 32 30 32 32 34 36 31 27 29 29 31 32 29 30 31 34 30 31 31 33 34 34 34 37 39 43 45 44 44 46 46 48
12 10 20 27 31 34 35 33 37 35 36 36 39 30 29 32 29 28 28 30 29 31 29 23 30 29 31 34 32 31 31 33 35 38 40 42 41 41 42 44 45 44 47
8 11 18 20 22 30 34 34 36 29 27 32 30 31 37 36 32 32 33 32 32 30 29 26 28 33 32 34 35 37 36 38 41 42 41 42 42 45 47 48 48 47 46
9 11 12 21 20 22 27 25 23 24 24 27 26 30 32 33 34 34 35 34 31 33 32 32 33 33 37 40 39 41 42 45 45 46 46 45 47 48 48 51 51 49 50
11 11 11 10 17 21 24 25 27 31 32 31 29 27 25 24 29 36 39 38 37 37 38 35 37 37 41 44 45 47 49 50 46 45 46 48 50 49 50 52 55 55 52
12 12 12 13 14 17 19 19 19 21 22 24 27 29 28 31 32 30 30 33 36 37 40 42 42 43 42 44 47 48 49 49 50 49 50 53 53 53 55 56 57 57 54
15 14 14 15 15 18 20 21 23 25 27 28 28 28 27 31 30 33 37 39 41 42 44 45 44 43 43 44 46 49 49 50 51 51 53 56 55 55 56 58 58 58 61
17 18 20 21 21 21 21 22 24 25 27 29 31 32 33 35 35 36 38 39 40 43 44 47 48 45 47 46 48 45 45 47 49 51 54 54 56 56 59 59 60 59 59
24 24 23 23 25 27 29 31 31 32 33 34 35 35 37 38 39 40 42 41 42 44 46 49 51 50 49 48 49 49 53 53 55 58 57 59 60 61 60 62 62 59 60
27 28 28 28 29 28 28 32 34 35 37 38 38 39 41 43 44 45 46 46 47 49 51 52 54 56 56 55 57 60 60 60 58 57 58 62 58 56 58 60 63 66 64
34 34 33 33 33 36 38 39 38 39 40 40 40 41 42 42 43 46 47 50 51 53 56 57 57 58 57 56 54 52 53 55 54 57 59 62 62 60 61 65 63 71 74
38 39 41 44 43 43 45 45 45 47 47 46 46 45 48 48 48 47 49 51 53 56 58 59 61 60 60 58 58 58 60 61 61 62 63 65 67 70 70 72 66 72 69
47 50 49 49 49 49 50 51 50 53 56 55 53 57 57 54 55 55 55 55 57 58 59 62 66 68 69 68 67 67 65 66 65 64 70 77 79 76 82 81 79 77 81
52 55 57 57 57 58 57 58 59 58 58 59 64 67 60 59 60 58 61 62 66 66 69 67 69 70 74 71 73 79 70 73 78 77 85 85 88 86 87 88 92 89 88
Wind_Direction
224 200 203 214 218 215 226 225 230 232 228 214 219 223 217 222 220 224 239 246 244 241 237 240 252 251 248 245 249 256 255 254 255 249 252 252 247 246 251 270 285 277 281
196 185 209 213 226 229 225 216 226 218 221 214 223 226 218 220 228 228 236 247 249 240 232 240 256 254 254 249 250 255 254 255 249 243 251 249 243 249 259 267 267 270 282
197 198 209 218 237 227 233 211 212 221 218 218 228 234 230 218 232 231 236 245 251 244 239 243 253 251 252 253 253 252 253 252 245 247 246 248 252 253 253 258 259 268 282
183 196 206 222 223 225 225 227 223 227 220 219 226 238 236 238 226 238 240 243 248 253 245 242 249 254 253 255 256 254 255 250 239 244 248 252 254 257 253 250 257 264 274
193 201 210 213 215 220 226 230 234 231 231 229 236 241 239 246 249 233 241 242 248 252 243 247 249 252 253 253 255 254 251 246 240 246 255 259 257 257 252 249 252 259 271
195 199 198 203 205 215 218 230 227 228 221 232 236 239 248 248 250 250 242 238 246 250 246 247 250 250 250 252 254 254 251 247 248 249 252 259 258 260 258 254 255 265 271
193 203 207 198 204 211 217 219 220 234 225 232 238 243 248 251 251 257 260 254 245 250 250 250 248 250 249 250 253 253 253 250 248 249 252 261 262 260 261 255 261 269 270
206 213 212 194 206 222 228 227 224 234 237 237 240 246 248 254 260 262 260 260 257 250 250 251 250 253 251 250 251 255 254 254 252 255 257 261 257 258 259 260 266 270 273
211 215 220 229 243 241 236 237 235 243 251 243 245 244 258 260 266 266 267 264 256 254 256 250 251 250 251 250 252 253 254 255 254 256 259 264 255 256 257 263 267 271 273
228 223 226 233 231 235 240 236 240 247 249 247 249 247 250 255 262 264 262 266 261 262 262 252 247 248 253 255 254 251 250 251 251 253 259 261 258 260 264 268 272 276 277
222 222 226 223 232 233 239 241 239 245 248 249 243 251 254 261 256 248 253 245 245 254 251 246 247 251 258 263 261 256 253 252 250 254 253 258 259 261 265 269 273 276 279
215 223 218 227 221 236 238 237 238 237 237 244 249 255 258 257 239 235 239 240 246 247 245 249 258 263 266 263 257 252 253 248 250 251 257 262 264 264 267 271 275 277 279
233 234 221 225 235 240 235 237 236 236 239 246 247 254 255 254 243 237 237 241 240 249 249 257 264 264 259 261 260 254 254 256 258 263 263 263 265 267 272 274 275 277 275
231 245 212 227 231 233 229 235 239 237 236 233 243 243 247 239 232 233 231 234 239 246 247 259 254 255 253 247 252 257 255 255 258 261 264 266 271 272 271 275 277 280 280
241 244 245 240 239 233 236 236 225 228 237 235 233 244 257 255 245 239 235 240 241 242 252 258 262 260 255 254 255 253 253 256 262 268 272 272 272 272 273 273 273 283 285
247 245 241 235 230 233 223 226 243 238 247 255 250 245 247 249 248 247 247 250 247 255 254 258 259 255 258 259 261 261 262 265 268 271 273 272 270 268 269 271 275 285 287
252 250 247 233 232 240 253 258 254 249 246 248 247 248 252 258 258 255 254 253 259 260 263 261 258 259 260 263 265 266 268 270 271 269 271 273 272 272 277 280 281 284 283
258 250 244 238 235 231 236 243 247 251 252 249 246 250 253 253 254 255 254 253 253 254 261 263 263 265 264 263 264 266 267 269 271 274 277 276 276 278 280 283 284 281 283
249 251 250 248 246 249 252 255 256 256 255 256 256 256 254 257 260 262 260 259 260 262 263 266 266 265 267 267 267 267 270 272 275 277 275 278 281 281 281 281 281 282 280
270 265 258 260 263 261 262 261 261 262 261 261 261 260 260 263 265 264 263 262 262 264 264 267 270 270 270 271 271 272 271 271 272 272 275 279 281 282 281 283 279 281 282
271 267 267 265 265 264 266 267 266 265 266 266 266 266 267 267 268 268 270 270 269 268 268 270 273 275 275 275 276 274 276 276 276 277 277 276 273 273 277 279 281 282 281
262 263 266 268 267 268 268 268 269 266 264 264 265 266 268 269 270 270 269 269 268 269 271 272 273 274 275 276 277 279 280 280 280 277 275 276 273 273 278 278 278 279 276
264 265 263 265 267 264 265 263 264 268 270 270 270 272 271 270 269 268 269 268 267 268 269 270 272 273 275 277 279 280 281 282 277 276 277 276 282 281 277 280 276 274 282
264 266 271 273 268 270 271 275 274 271 269 272 272 271 271 269 268 266 265 266 267 267 269 271 274 276 277 276 278 279 281 282 282 283 285 287 288 283 282 281 279 278 277
266 270 269 270 270 270 273 274 272 272 273 273 271 269 274 273 269 270 271 272 273 275 277 275 274 276 277 279 280 279 281 283 283 286 287 287 285 286 287 282 283 281 283
262 266 267 266 269 271 268 266 267 268 271 272 275 276 275 276 275 273 273 273 275 275 273 278 277 276 277 279 282 283 283 284 284 288 284 285 287 286 288 275 280 282 279